sat.trackr.live / text

‹ back to catalog

ONEWEB-0085

NORAD 45438 · 2020-020Q

PAYLOAD ACTIVE UNKNOWN

§ Identity

Operator
Country
UK
Launch date
2020-03-21
Launch site
TYMSC
Launch vehicle
Mass (kg)
RCS (m²)

Purposes: comms

External: N2YO · Heavens-Above · Gunter

§ Orbital elements

Epoch: 2026-05-25T02:09:07.728192Z

Period
109.80 min
Inclination
87.8909°
Eccentricity
0.0001789
Mean motion
13.11417567 rev/d
Perigee alt
1,216.3 km
Apogee alt
1,219.0 km
Semi-major
7,595.8 km
B*
-1.0237e-3
RAAN
25.6624°
Arg perigee
81.8581°
Mean anomaly
278.2749°
Rev number
29,964

§ Raw data

ONEWEB-00851 45438U 20020Q   26145.08967278 -.00000350  00000+0 -10237-2 0  99972 45438  87.8909  25.6624 0001789  81.8581 278.2749 13.11417567299643

JSON: /api/v1/satellites/45438 · /tle

For live sub-satellite position, see the globe view (requires WebGL).

§ Visibility from observer

Set your observer location to see the next 7 days of passes ≥ 10°. The values pass through the URL so the page stays shareable.

No JS? Fill the form by hand. The geolocation button needs JavaScript.